Weather Roundup
Issued by NWS

Home | Current Version | Previous Version | Text Only | Print | Product List | Glossary On
Versions: 1 2 3 4 5 6 7 8 9 10 11 12 13 14 15 16 17 18 19 20 21 22 23 24 25 26 27 28 29 30 31 32 33 34 35 36 37 38 39 40 41 42 43 44 45 46 47 48 49 50
000
NZUS93 KARX 230110
HRRWXR

CURRENT HOURLY OBSERVATIONS ACROSS
MUCH OF THE UPPER MISSISSIPPI VALLEY
NATIONAL WEATHER SERVICE LA CROSSE WI
800 PM CDT WED OCT 22 2014


...SOUTHEAST MINNESOTA...


CITY           SKY/WX    TMP DP  RH WIND       PRES   REMARKS
ROCHESTER      CLOUDY    54  38  54 S15G28    30.12S
ROCHESTER/MAYO CLOUDY    55  36  48 SE9G18    30.12S
WINONA         MOCLDY    54  37  54 SE5       30.16R
AUSTIN         LGT RAIN  55  41  58 SE12G20   30.10S
ALBERT LEA     CLOUDY    55  41  58 SE17      30.08S
DODGE CENTER   CLOUDY    55  41  58 S18       30.09S
PRESTON        MOCLDY    52  37  57 S10       30.15S
OWATONNA       CLOUDY    55  39  54 SE18G26   30.06S
FARIBAULT      CLOUDY    55  41  58 SE14G22   30.06S
$$

...ELSEWHERE IN MINNESOTA...


CITY           SKY/WX    TMP DP  RH WIND       PRES   REMARKS
MINNEAPOLIS    CLOUDY    57  40  52 SE14G23   30.05R
INTNL FALLS    CLOUDY    56  41  57 S8G17     29.94S
DULUTH         MOCLDY    50  38  63 SE8       30.05R
RED WING       NOT AVBL
REDWOOD FALLS  CLOUDY    63  46  54 SE15      29.97R
MANKATO        PTCLDY    57  39  51 S17G25    30.03R
WORTHINGTON    CLOUDY    57  55  94 S10       30.01S
FAIRMONT       CLOUDY    57  43  58 S21G26    30.02S
$$

...SOUTHWEST WISCONSIN...


CITY           SKY/WX    TMP DP  RH WIND       PRES   REMARKS
LA CROSSE      MOCLDY    54  38  54 SE8       30.17R
PRAIRIE DU CHI PTCLDY    50  36  59 E6        30.19S
BOSCOBEL       CLEAR     43  36  76 CALM      30.21R
LONE ROCK      CLEAR     47  34  60 E5        30.22R
PLATTEVILLE    CLEAR     49  35  58 SE7       30.22S
FORT MC COY    CLEAR     43  34  69 CALM      30.19S
CAMP DOUGLAS   PTCLDY    45  37  76 SE6       30.19S
VIROQUA        FAIR      49  36  61 SE6       30.18F
WIS DELLS      CLEAR     43  36  74 SE5       30.22S
$$

...ELSEWHERE IN WISCONSIN...


CITY           SKY/WX    TMP DP  RH WIND       PRES   REMARKS
MILWAUKEE      PTCLDY    42  36  79 SE7       30.27S
MADISON        PTCLDY    44  35  70 CALM      30.23S
GREEN BAY      CLEAR     41  37  86 SE7       30.26F
EAU CLAIRE     CLOUDY    56  36  47 S9        30.13S
BLACK RVR FLS  FAIR      40  33  76 CALM      30.17S
MEDFORD        CLEAR     45  35  68 SE6       30.17S
WAUSAU         CLEAR     46  34  62 SE10      30.19S
WIS RAPIDS     CLEAR     45  35  68 SE6       30.22R
MARSHFIELD     CLEAR     45  35  68 SE6       30.18S
RICE LAKE      CLOUDY    55  35  47 SE12G20   30.12S
$$

...NORTHEAST IOWA...


CITY           SKY/WX    TMP DP  RH WIND       PRES   REMARKS
DECORAH        CLOUDY    52  37  58 SE9       30.16S
MASON CITY     CLOUDY    56  42  59 SE16G23   30.11S
CHARLES CITY   CLOUDY    55  39  54 SE15      30.14S
OELWEIN        MOCLDY    50  39  66 SE8       30.18R
$$

...ELSEWHERE IN IOWA...


CITY           SKY/WX    TMP DP  RH WIND       PRES   REMARKS
DES MOINES     MOCLDY    60  46  59 SE13      30.12S
IOWA CITY      CLEAR     48  39  71 SE3       30.21S
FORT DODGE     PTCLDY    57  45  62 SE13      30.06F
$$

...NORTHERN ILLINOIS...


CITY           SKY/WX    TMP DP  RH WIND       PRES   REMARKS
CHICAGO-OHARE  CLEAR     45  37  73 E9        30.26F
CHICAGO-MIDWAY CLEAR     48  38  68 E6        30.27F
MOLINE         CLEAR     43  37  79 S3        30.23R
ROCKFORD       PTCLDY    47  36  65 SE5       30.26S
PEORIA         CLEAR     53  36  52 E5        30.24R
$$

NOTE: "FAIR" INDICATES FEW OR NO CLOUDS BELOW 12,000 FEET WITH NO
SIGNIFICANT WEATHER AND/OR OBSTRUCTIONS TO VISIBILITY. WIND
SPEEDS ARE IN MILES-PER-HOUR.



USA.gov is the U.S. government's official web portal to all federal, state and local government web resources and services.